TimePDT,TemperatureF,Dew PointF,Humidity,Sea Level PressureIn,VisibilityMPH,Wind Direction,Wind SpeedMPH,Gust SpeedMPH,PrecipitationIn,Events,Conditions,WindDirDegrees,DateUTC
12:53 AM,62.1,57.0,84,29.95,8.0,SSW,3.5,-,N/A,,Clear,200,2013-06-17 07:53:00
1:33 AM,62.6,57.2,82,29.95,8.0,SSW,3.5,-,N/A,,Scattered Clouds,200,2013-06-17 08:33:00
1:42 AM,62.6,57.2,82,29.95,8.0,SW,3.5,-,N/A,,Mostly Cloudy,230,2013-06-17 08:42:00
1:53 AM,63.0,57.9,84,29.95,8.0,Calm,Calm,-,N/A,,Overcast,0,2013-06-17 08:53:00
2:53 AM,63.0,57.9,84,29.94,8.0,Calm,Calm,-,N/A,,Overcast,0,2013-06-17 09:53:00
3:53 AM,63.0,57.0,81,29.94,9.0,Calm,Calm,-,N/A,,Overcast,0,2013-06-17 10:53:00
4:53 AM,63.0,57.0,81,29.94,8.0,Calm,Calm,-,N/A,,Overcast,0,2013-06-17 11:53:00
5:53 AM,63.0,57.0,81,29.96,8.0,SSE,4.6,-,N/A,,Overcast,160,2013-06-17 12:53:00
6:10 AM,62.6,57.2,82,29.96,6.0,ESE,4.6,-,N/A,,Haze,120,2013-06-17 13:10:00
6:53 AM,62.1,57.0,84,29.97,6.0,ESE,4.6,-,N/A,,Haze,110,2013-06-17 13:53:00
7:00 AM,62.6,57.2,82,29.97,6.0,Calm,Calm,-,N/A,,Haze,0,2013-06-17 14:00:00
7:53 AM,62.1,57.0,84,29.98,6.0,SSE,4.6,-,N/A,,Haze,150,2013-06-17 14:53:00
8:53 AM,64.0,57.0,78,29.99,7.0,Calm,Calm,-,N/A,,Overcast,0,2013-06-17 15:53:00
9:53 AM,66.0,57.0,73,29.98,7.0,Calm,Calm,-,N/A,,Mostly Cloudy,0,2013-06-17 16:53:00
10:10 AM,66.2,57.2,73,29.97,8.0,SE,4.6,-,N/A,,Scattered Clouds,130,2013-06-17 17:10:00
10:53 AM,71.1,57.0,61,29.97,8.0,Variable,3.5,-,N/A,,Partly Cloudy,0,2013-06-17 17:53:00
11:53 AM,73.0,57.0,57,29.97,9.0,Variable,5.8,-,N/A,,Partly Cloudy,0,2013-06-17 18:53:00
12:53 PM,72.0,57.0,59,29.96,10.0,SW,10.4,-,N/A,,Partly Cloudy,220,2013-06-17 19:53:00
1:53 PM,73.0,57.0,57,29.94,9.0,SSW,9.2,-,N/A,,Clear,210,2013-06-17 20:53:00
2:53 PM,73.9,57.0,55,29.93,10.0,SW,9.2,-,N/A,,Clear,220,2013-06-17 21:53:00
3:53 PM,72.0,57.0,59,29.92,10.0,SW,9.2,-,N/A,,Clear,220,2013-06-17 22:53:00
4:53 PM,71.1,57.9,63,29.91,9.0,WSW,8.1,-,N/A,,Partly Cloudy,240,2013-06-17 23:53:00
5:53 PM,70.0,57.9,65,29.90,10.0,SW,6.9,-,N/A,,Partly Cloudy,230,2013-06-18 00:53:00
6:53 PM,68.0,57.9,70,29.91,9.0,WSW,6.9,-,N/A,,Partly Cloudy,250,2013-06-18 01:53:00
7:53 PM,66.9,57.9,73,29.90,9.0,SSW,4.6,-,N/A,,Partly Cloudy,210,2013-06-18 02:53:00
8:53 PM,64.9,57.9,78,29.89,9.0,SSW,5.8,-,N/A,,Partly Cloudy,210,2013-06-18 03:53:00
9:53 PM,64.0,57.9,80,29.90,9.0,SSW,5.8,-,N/A,,Partly Cloudy,200,2013-06-18 04:53:00
10:53 PM,64.0,57.9,80,29.91,9.0,SSW,5.8,-,N/A,,Partly Cloudy,200,2013-06-18 05:53:00
11:53 PM,63.0,57.9,84,29.89,8.0,SSW,3.5,-,N/A,,Clear,200,2013-06-18 06:53:00